Notices

What's New in latest Release from April 7th, 2021:

- Updated Glossary, including Speed of Maximum Gust, and Total Hourly Precipitation

- Updated national and regional climate services offices contacts and prices information

- Addition of station inventory lists for 1981-2010, 1971-2000, and 1961-1990 Normals.

If you haven't already, please take our survey and provide feedback about our website: https://eccc.sondage-survey.ca/f/LanguageSelection.aspx?s=442ca660-fcf1-47c0-95a9-59707d6fd709

Hourly Data Report for June 29, 2004

SHERBROOKE A
QUEBEC

45°26'00.000" N
71°41'00.000" W
241.40 m
7028124
71610
YSC

Download Data

Hourly Data (June 2004)
Hourly Data Report for June 29, 2004
TIME
LST
Temp Definition
°C
Dew Point Definition
°C
Rel Hum Definition
%
Precip. Amount Definition
mm

Wind Dir Definition
10's deg

Wind Spd Definition
km/h
Visibility Definition
km
Stn Press Definition
kPa
Hmdx Definition


Wind Chill Definition


Weather Definition


00:00 10.7 9.0 89     0 15.0 98.67      
01:00 9.7 8.5 92   3 4 15.0 98.67      
02:00 9.6 8.1 90     0 15.0 98.64      
03:00 9.3 8.0 92     0 15.0 98.61      
04:00 8.9 7.7 92     0 15.0 98.62      
05:00 9.1 7.8 92     0 15.0 98.67      
06:00 10.8 9.3 90     0 15.0 98.71      
07:00 14.3 9.9 75   20 6 24.1 98.71     Mainly Clear
08:00 15.6 10.9 74   25 9 24.1 98.74     Mainly Clear
09:00 17.9 11.0 64   21 4 24.1 98.73     Mainly Clear
10:00 18.8 10.8 60   20 7 24.1 98.69     Mostly Cloudy
11:00 20.0 10.6 55   20 7 24.1 98.65     Mainly Clear
12:00 21.7 12.0 54   28 7 24.1 98.58     Mainly Clear
13:00 21.4 10.1 48   19 9 24.1 98.56     Mostly Cloudy
14:00 20.9 10.4 51   22 15 24.1 98.52     Mostly Cloudy
15:00 19.0 10.9 59   27 9 19.3 98.55     Rain Showers
16:00 17.3 12.6 74   20 6 19.3 98.56     Cloudy
17:00 17.3 12.9 75   29 7 15.0 98.58      
18:00 16.3 11.1 71   26 7 15.0 98.62     Rain
19:00 15.3 11.6 79   20 6 15.0 98.64     Rain
20:00 14.0 12.0 88   10 7 15.0 98.61     Rain
21:00 13.6 12.3 92   13 4 15.0 98.61      
22:00 13.3 11.7 90   11 7 15.0 98.56      
23:00 12.8 11.7 93   30 4 8.0 98.54     Heavy Rain

Notes on Data Quality.

Legend

  • E = Estimated
  • M = Missing
  • NA = Not Available*
  • [empty] = Indicates an unobserved value
Date modified: